Weather History for Mora, MN

Change the Weather History Date:

Wednesday, May 13, 2009

  Actual Average Record
Temperature  
Mean Temperature 61 °F -  
Max Temperature 69 °F 67 °F 88 °F (1932)
Min Temperature 53 °F 39 °F 22 °F (1953)
Degree Days  
Heating Degree Days 4    
Growing Degree Days 11 (Base 50)    
Moisture  
Dew Point 47 °F    
Average Humidity 65    
Maximum Humidity 94    
Minimum Humidity 30    
Precipitation  
Precipitation 0.01 in - - ()
Sea Level Pressure  
Sea Level Pressure 29.54 in    
Wind  
Wind Speed 14 mph (SW)    
Max Wind Speed 20 mph    
Max Gust Speed 30 mph    
Visibility 9 miles    
Events Rain , Thunderstorm    
Averages and records for this station are not official NWS values.
T = Trace of Precipitation, MM = Missing Value Source: NWS Daily Summary

Daily Weather History Graph

Daily Weather History Graph

Search for Another Location

Airport:

Trip Planner

Search our weather history database for the weather conditions in past years. The results will help you decide how hot, cold, wet, or windy it might be!

Date:

Astronomy

May. 13, 2009 Rise Set
Actual Time 5:43 AM CDT 8:36 PM CDT
Civil Twilight 5:08 AM CDT 9:11 PM CDT
Nautical Twilight 4:24 AM CDT 9:55 PM CDT
Astronomical Twilight 3:32 AM CDT 10:48 PM CDT
Moon 12:21 AM CDT (5/13) 8:47 AM CDT (5/13)
Length of Visible Light 16h 02m
Length of Day
14h 52m
Waning Gibbous, 82% of the Moon is Illuminated
May 13
Waning Gibbous
May 17
Last Quarter
May 24
New
May 30
First Quarter
Jun 7
Full

Hourly Weather History & Observations

Time (CDT) Temp. Dew Point Humidity Pressure Visibility Wind Dir Wind Speed Gust Speed Precip Events Conditions
12:17 AM 59.0 °F 48.2 °F 67% 29.65 in 10.0 mi South 13.8 mph 21.9 mph N/A   Overcast
12:37 AM 59.0 °F 48.2 °F 67% 29.65 in 10.0 mi South 16.1 mph 25.3 mph N/A   Overcast
12:57 AM 59.0 °F 48.2 °F 67% 29.65 in 10.0 mi South 16.1 mph 20.7 mph N/A   Overcast
1:17 AM 57.2 °F 50.0 °F 77% 29.65 in 10.0 mi South 19.6 mph 26.5 mph N/A Rain Light Rain
1:37 AM 55.4 °F 50.0 °F 82% 29.63 in 10.0 mi South 13.8 mph 20.7 mph N/A Rain Rain
1:57 AM 55.4 °F 50.0 °F 82% 29.63 in 10.0 mi South 12.7 mph 18.4 mph N/A   Drizzle
2:17 AM 55.4 °F 50.0 °F 82% 29.63 in 10.0 mi South 11.5 mph 16.1 mph N/A   Overcast
2:37 AM 55.4 °F 51.8 °F 88% 29.63 in 7.0 mi South 12.7 mph 20.7 mph N/A   Drizzle
2:57 AM 55.4 °F 51.8 °F 88% 29.61 in 4.0 mi South 9.2 mph - N/A Thunderstorm Drizzle
3:17 AM 53.6 °F 51.8 °F 94% 29.60 in 7.0 mi South 15.0 mph 20.7 mph N/A   Light Drizzle
3:37 AM 53.6 °F 50.0 °F 88% 29.58 in 7.0 mi South 11.5 mph 19.6 mph N/A   Light Drizzle
3:57 AM 53.6 °F 50.0 °F 88% 29.57 in 5.0 mi South 17.3 mph - N/A Rain Rain
4:17 AM 53.6 °F 50.0 °F 88% 29.57 in 10.0 mi South 11.5 mph - N/A   Overcast
4:37 AM 53.6 °F 50.0 °F 88% 29.56 in 10.0 mi South 16.1 mph 23.0 mph N/A   Overcast
4:57 AM 53.6 °F 50.0 °F 88% 29.55 in 5.0 mi South 15.0 mph 21.9 mph N/A Rain Rain
5:17 AM 53.6 °F 50.0 °F 88% 29.54 in 7.0 mi South 17.3 mph 23.0 mph N/A Rain Rain
5:37 AM 53.6 °F 50.0 °F 88% 29.52 in 5.0 mi SSE 17.3 mph 23.0 mph N/A Rain Light Rain
5:57 AM 53.6 °F 50.0 °F 88% 29.52 in 7.0 mi South 16.1 mph 23.0 mph N/A   Overcast
6:17 AM 53.6 °F 50.0 °F 88% 29.53 in 10.0 mi South 16.1 mph - N/A   Overcast
6:37 AM 53.6 °F 50.0 °F 88% 29.53 in 10.0 mi South 17.3 mph 27.6 mph N/A   Overcast
6:57 AM 53.6 °F 50.0 °F 88% 29.53 in 5.0 mi South 10.4 mph 23.0 mph N/A   Overcast
7:17 AM 55.4 °F 53.6 °F 94% 29.53 in 10.0 mi South 13.8 mph 21.9 mph N/A   Overcast
7:37 AM 55.4 °F 53.6 °F 94% 29.53 in 7.0 mi South 12.7 mph - 0.01 in   Drizzle
7:57 AM 55.4 °F 53.6 °F 94% 29.53 in 5.0 mi South 11.5 mph 19.6 mph 0.01 in   Light Drizzle
8:17 AM 55.4 °F 53.6 °F 94% 29.53 in 7.0 mi SSW 11.5 mph 21.9 mph N/A   Light Drizzle
8:37 AM 55.4 °F 53.6 °F 94% 29.53 in 10.0 mi South 11.5 mph 18.4 mph N/A   Overcast
8:57 AM 55.4 °F 53.6 °F 94% 29.52 in 10.0 mi SSW 11.5 mph 16.1 mph N/A   Overcast
9:17 AM 55.4 °F 53.6 °F 94% 29.52 in 10.0 mi SSW 9.2 mph - N/A   Overcast
9:37 AM 55.4 °F 53.6 °F 94% 29.52 in 10.0 mi SW 6.9 mph - N/A   Overcast
9:57 AM 59.0 °F 55.4 °F 88% 29.51 in 10.0 mi SSW 9.2 mph - N/A   Overcast
10:17 AM 60.8 °F 55.4 °F 82% 29.53 in 10.0 mi SW 10.4 mph 16.1 mph N/A   Overcast
10:37 AM 62.6 °F 55.4 °F 77% 29.52 in 10.0 mi SW 12.7 mph 17.3 mph N/A   Overcast
10:57 AM 64.4 °F 55.4 °F 73% 29.52 in 10.0 mi WSW 12.7 mph 19.6 mph N/A   Mostly Cloudy
11:17 AM 64.4 °F 53.6 °F 68% 29.51 in 10.0 mi West 10.4 mph 20.7 mph N/A   Mostly Cloudy
11:37 AM 68.0 °F 50.0 °F 52% 29.51 in 10.0 mi WSW 12.7 mph 18.4 mph N/A   Scattered Clouds
11:57 AM 68.0 °F 48.2 °F 49% 29.51 in 10.0 mi West 9.2 mph 16.1 mph N/A   Scattered Clouds
12:17 PM 69.8 °F 46.4 °F 43% 29.51 in 10.0 mi WSW 12.7 mph - N/A   Clear
12:37 PM 69.8 °F 44.6 °F 40% 29.51 in 10.0 mi West 15.0 mph 19.6 mph N/A   Clear
12:57 PM 69.8 °F 44.6 °F 40% 29.50 in 10.0 mi West 12.7 mph 19.6 mph N/A   Clear
1:17 PM 69.8 °F 44.6 °F 40% 29.50 in 10.0 mi West 12.7 mph 17.3 mph N/A   Clear
1:37 PM 69.8 °F 42.8 °F 38% 29.50 in 10.0 mi West 12.7 mph 17.3 mph N/A   Clear
1:57 PM 69.8 °F 42.8 °F 38% 29.51 in 10.0 mi WSW 12.7 mph 18.4 mph N/A   Clear
2:17 PM 69.8 °F 41.0 °F 35% 29.52 in 10.0 mi WSW 11.5 mph 18.4 mph N/A   Clear
2:37 PM 69.8 °F 42.8 °F 38% 29.52 in 10.0 mi WSW 16.1 mph 21.9 mph N/A   Scattered Clouds
2:57 PM 69.8 °F 41.0 °F 35% 29.51 in 10.0 mi WSW 11.5 mph 19.6 mph N/A   Mostly Cloudy
3:17 PM 69.8 °F 41.0 °F 35% 29.51 in 10.0 mi WSW 13.8 mph 23.0 mph N/A   Overcast
3:37 PM 69.8 °F 39.2 °F 33% 29.50 in 10.0 mi WSW 16.1 mph 21.9 mph N/A   Mostly Cloudy
3:57 PM 69.8 °F 41.0 °F 35% 29.50 in 10.0 mi WSW 12.7 mph 19.6 mph N/A   Scattered Clouds
4:17 PM 69.8 °F 41.0 °F 35% 29.50 in 10.0 mi West 18.4 mph 25.3 mph N/A   Scattered Clouds
4:37 PM 69.8 °F 42.8 °F 38% 29.50 in 10.0 mi West 17.3 mph 21.9 mph N/A   Mostly Cloudy
4:57 PM 68.0 °F 39.2 °F 35% 29.51 in 10.0 mi West 13.8 mph 23.0 mph N/A   Mostly Cloudy
5:17 PM 69.8 °F 37.4 °F 31% 29.50 in 10.0 mi West 18.4 mph 24.2 mph N/A   Scattered Clouds
5:37 PM 69.8 °F 39.2 °F 33% 29.50 in 10.0 mi West 12.7 mph 23.0 mph N/A   Scattered Clouds
5:57 PM 68.0 °F 37.4 °F 33% 29.50 in 10.0 mi West 18.4 mph 23.0 mph N/A   Scattered Clouds
6:17 PM 68.0 °F 35.6 °F 30% 29.50 in 10.0 mi West 12.7 mph 20.7 mph N/A   Scattered Clouds
6:37 PM 68.0 °F 35.6 °F 30% 29.50 in 10.0 mi West 18.4 mph 28.8 mph N/A   Scattered Clouds
6:57 PM 64.4 °F 35.6 °F 34% 29.51 in 10.0 mi West 19.6 mph 29.9 mph N/A   Scattered Clouds
7:17 PM 62.6 °F 35.6 °F 37% 29.53 in 10.0 mi West 18.4 mph 26.5 mph N/A   Scattered Clouds
7:37 PM 60.8 °F 35.6 °F 39% 29.56 in 10.0 mi West 26.5 mph 42.6 mph N/A   Mostly Cloudy
7:57 PM 55.4 °F 35.6 °F 47% 29.55 in 10.0 mi West 11.5 mph - N/A   Scattered Clouds
8:17 PM 55.4 °F 35.6 °F 47% 29.55 in 10.0 mi West 11.5 mph 19.6 mph N/A   Scattered Clouds
8:37 PM 55.4 °F 33.8 °F 44% 29.55 in 10.0 mi West 13.8 mph 18.4 mph N/A   Clear
8:57 PM 55.4 °F 32.0 °F 41% 29.55 in 10.0 mi West 11.5 mph 23.0 mph N/A   Scattered Clouds
9:17 PM 55.4 °F 32.0 °F 41% 29.56 in 10.0 mi WNW 13.8 mph 25.3 mph N/A   Clear
9:37 PM 53.6 °F 33.8 °F 47% 29.57 in 10.0 mi WNW 13.8 mph 18.4 mph N/A   Clear
9:57 PM 51.8 °F 35.6 °F 54% 29.58 in 10.0 mi WNW 13.8 mph 27.6 mph N/A   Clear
10:17 PM 50.0 °F 33.8 °F 54% 29.58 in 10.0 mi WNW 11.5 mph 18.4 mph N/A   Scattered Clouds
10:37 PM 50.0 °F 35.6 °F 58% 29.59 in 10.0 mi WNW 11.5 mph 17.3 mph N/A   Mostly Cloudy
10:57 PM 50.0 °F 35.6 °F 58% 29.60 in 10.0 mi West 11.5 mph 17.3 mph N/A   Mostly Cloudy
11:17 PM 50.0 °F 35.6 °F 58% 29.60 in 10.0 mi West 8.1 mph 16.1 mph N/A   Clear
11:37 PM 48.2 °F 35.6 °F 62% 29.60 in 10.0 mi West 5.8 mph - N/A   Clear
11:57 PM 48.2 °F 35.6 °F 62% 29.62 in 10.0 mi West 6.9 mph - N/A   Clear